Location: Unspecified
(48.8647°N, 0.0000°E)
Time: 21:23:39
(UTC+00:00)

AO-73 - Visible Passes

Search period start: 04 April 2026 00:00
Search period end: 14 April 2026 00:00
Orbit: 515 x 568 km, 97.8° (Epoch: 29 March)

Date Brightness Start Highest point End Pass type
(mag) Time Alt. Az. Time Alt. Az. Time Alt. Az.
4 Apr ? 03:22:37 10° NNE 03:26:07 34° E 03:29:07 13° SSE visible
5 Apr ? 03:15:42 10° NE 03:19:03 29° E 03:22:11 11° SSE visible
5 Apr ? 04:50:21 10° N 04:53:31 26° WNW 04:56:42 10° WSW visible
6 Apr ? 03:08:48 10° NE 03:11:57 25° E 03:15:08 10° SSE visible
6 Apr ? 04:43:10 10° N 04:46:30 30° WNW 04:49:52 10° SW visible
7 Apr ? 03:01:54 10° NE 03:04:50 21° E 03:07:47 10° SE visible
7 Apr ? 04:36:00 10° N 04:39:29 35° WNW 04:42:59 10° SW visible
8 Apr ? 02:55:03 10° NE 02:57:41 18° E 03:00:21 10° SE visible
8 Apr ? 04:28:49 10° N 04:32:26 42° WNW 04:36:03 10° SW visible
9 Apr ? 02:48:15 10° NE 02:50:31 15° E 02:52:47 10° SE visible
9 Apr ? 04:21:38 10° N 04:25:20 51° WNW 04:29:04 10° SSW visible
10 Apr ? 02:41:34 10° ENE 02:43:19 13° E 02:45:04 10° ESE visible
10 Apr ? 04:14:28 10° N 04:18:14 61° WNW 04:22:02 10° SSW visible
11 Apr ? 02:35:13 10° ENE 02:36:06 11° E 02:36:58 10° ESE visible
11 Apr ? 04:07:16 10° N 04:11:06 75° WNW 04:14:57 10° SSW visible
12 Apr ? 04:00:06 10° NNE 04:03:57 89° WNW 04:07:49 10° SSW visible
13 Apr ? 03:52:55 10° NNE 03:56:45 76° ESE 04:00:38 10° S visible
